Temperature
16 17 18 18 18 16 14 12 12 13 13 14 13 13 13 13 13 13 13 13 13 13 13 13 13 12 12 12 12 12 12 12 12 12 12 12 12 12 12 12 12 12 12 12
18 18 18 18 18 18 17 16 15 15 14 14 14 14 13 13 12 13 13 13 13 13 13 12 12 12 11 11 11 12 12 12 12 12 12 12 12 12 12 11 12 12 12 12
15 17 16 16 17 18 18 18 17 15 14 14 13 13 13 13 13 13 13 13 13 13 12 12 12 11 11 11 11 11 11 11 12 12 12 12 11 11 11 11 11 12 12 12
14 16 16 15 17 18 18 17 17 16 14 13 14 15 15 14 14 13 13 13 13 12 12 12 11 11 11 10 11 11 11 11 11 11 11 11 11 11 11 11 11 11 11 11
13 14 15 17 18 18 17 17 17 15 15 15 15 14 14 14 14 14 13 13 13 12 12 11 11 10 10 10 11 11 11 11 11 11 11 11 11 11 11 11 11 11 11 11
14 14 14 16 18 19 17 15 16 16 15 15 14 11 12 15 14 14 13 13 12 12 11 11 10 10 10 10 10 11 11 11 11 11 10 10 10 10 10 10 10 10 10 11
14 14 15 17 19 19 16 14 17 17 17 16 14 14 16 15 14 14 13 12 12 11 11 11 10 10 10 10 10 10 10 10 10 10 10 10 10 9 9 10 10 10 10 10
14 14 15 18 19 16 16 18 18 18 18 17 17 16 15 15 14 13 13 12 12 11 11 10 10 10 10 10 10 10 10 10 10 9 10 10 9 9 9 9 9 9 9 9
14 14 17 19 19 20 19 18 18 18 18 17 17 15 15 14 14 13 13 12 12 11 11 10 10 10 10 10 10 10 9 9 9 9 9 9 9 9 9 9 9 9 9 9
14 15 17 19 19 19 19 19 19 18 18 17 17 16 15 14 13 13 13 12 12 11 11 10 10 10 10 10 9 9 9 9 9 9 9 9 9 9 9 9 8 8 8 8
13 14 16 18 19 19 19 19 19 18 18 18 17 16 15 14 14 13 13 12 12 11 11 11 10 10 10 10 9 9 9 8 8 8 8 9 9 8 8 8 8 8 8 8
14 15 14 17 19 19 19 19 19 19 18 18 17 17 16 15 14 13 13 12 12 11 11 10 10 10 10 9 9 9 9 9 8 8 8 8 8 8 8 8 8 8 8 8
17 18 18 18 18 18 19 19 19 19 18 18 17 17 16 15 14 14 13 13 12 11 11 10 10 10 10 10 9 9 9 9 9 9 9 9 9 9 9 9 9 9 9 8
18 18 18 18 18 19 19 19 19 19 18 18 18 17 16 16 15 14 13 13 12 11 11 10 10 10 10 10 9 9 9 9 9 9 9 9 9 9 9 9 9 9 9 9
18 18 18 19 18 18 18 18 18 18 18 18 17 17 16 16 15 14 14 13 12 11 11 10 10 10 10 10 9 10 10 10 10 10 10 10 10 10 9 9 9 9 9 9
19 19 19 18 18 18 18 18 18 18 18 17 17 17 16 16 16 15 14 13 12 12 11 11 10 10 10 10 10 10 10 10 10 10 10 10 10 10 10 10 10 10 9 9
18 18 18 18 18 18 18 17 17 17 17 17 17 17 17 16 15 15 14 13 13 12 12 11 11 11 10 10 10 10 10 10 10 10 10 10 10 10 10 10 10 10 10 10
18 18 17 17 17 17 17 17 17 16 16 16 16 16 16 16 15 15 14 14 13 12 12 12 11 11 11 10 10 10 10 10 10 10 10 10 11 11 11 11 11 11 11 10
15 15 15 15 15 15 16 16 16 16 15 15 15 15 15 16 16 16 15 14 13 13 13 12 12 11 11 11 11 11 10 10 10 10 11 11 11 11 11 11 11 11 11 10
11 12 13 13 12 12 12 13 14 14 15 14 14 14 14 14 14 15 15 14 14 14 14 13 12 12 12 11 11 11 11 11 11 11 11 11 11 11 11 11 11 11 11 11
10 10 11 11 11 11 10 11 12 13 14 14 14 13 13 14 14 13 13 14 14 14 14 14 13 13 12 12 12 11 11 11 11 11 11 11 11 11 11 11 11 11 11 11
10 10 10 11 11 11 11 11 11 12 13 13 13 13 13 13 13 13 13 13 14 14 14 14 13 13 13 13 12 12 12 11 11 11 11 11 11 11 11 11 11 11 11 11
10 10 10 10 11 11 11 11 11 12 12 12 12 12 12 12 12 12 12 13 13 14 13 13 14 14 13 13 13 12 12 12 11 11 11 11 11 11 11 11 11 11 11 11
10 10 10 10 11 11 11 11 11 11 11 11 11 11 11 11 12 12 12 13 13 13 13 13 14 14 14 13 13 13 12 12 12 12 12 11 11 11 11 11 11 11 11 11
9 9 9 9 9 9 10 10 10 10 11 11 11 11 11 11 11 11 12 12 13 13 13 13 13 14 14 13 13 13 13 13 13 12 12 12 11 11 11 11 11 11 11 11
8 8 8 8 8 8 8 8 9 9 10 10 10 10 10 10 11 11 11 12 12 13 13 12 13 13 13 13 13 13 13 13 13 13 12 12 12 12 11 11 11 11 11 11
7 7 7 7 7 7 7 7 8 9 9 10 10 10 10 10 10 10 11 11 12 12 12 12 12 13 13 13 13 13 13 13 13 13 12 12 12 12 12 12 11 11 11 10
Wind_Speed
8 8 7 8 9 8 8 9 9 9 9 11 8 7 7 7 7 7 6 5 5 6 4 4 3 3 3 2 2 2 2 2 2 4 3 3 2 2 4 5 7 7 7 7
3 6 7 10 11 8 9 8 7 6 8 7 4 2 2 3 5 6 5 5 5 6 5 4 3 2 1 1 2 1 3 3 2 3 4 4 4 4 6 6 7 7 7 7
5 5 6 8 9 9 7 6 7 8 9 5 4 5 6 6 6 6 6 6 7 6 5 4 3 2 1 2 1 1 4 4 4 5 5 5 5 6 6 6 6 7 6 7
3 2 5 9 8 8 8 6 6 6 6 8 8 7 7 8 8 7 6 7 7 6 6 4 3 3 3 2 1 3 4 4 5 6 6 5 6 6 5 5 6 5 6 6
4 4 7 9 6 6 6 4 4 6 7 8 7 3 4 8 9 8 8 7 6 6 5 4 4 4 3 3 3 4 4 4 5 6 6 5 5 4 3 5 5 5 5 6
4 4 7 9 5 6 6 2 3 7 7 7 7 3 7 8 8 8 7 6 5 5 4 4 4 4 3 3 3 4 5 5 5 5 6 5 5 3 3 4 5 6 5 5
6 6 7 7 4 5 3 8 8 8 8 8 9 10 7 6 8 8 7 7 7 6 5 4 4 4 4 4 4 4 5 5 4 3 4 5 4 3 4 5 5 5 6 5
4 4 8 7 5 6 10 8 10 10 9 8 9 8 8 9 10 10 8 7 7 5 5 5 5 6 6 5 4 5 6 5 4 2 2 4 5 4 4 5 6 5 5 5
7 8 7 6 8 8 8 9 10 10 9 9 9 10 10 10 10 10 9 8 7 7 7 6 6 7 7 6 5 6 6 5 3 3 2 3 5 6 4 4 5 4 4 4
5 7 6 7 7 6 8 11 12 12 10 11 11 13 12 11 10 9 8 8 7 8 8 7 7 7 7 7 7 7 6 5 3 3 3 4 4 4 4 5 5 5 4 3
8 9 9 8 7 7 8 8 9 10 11 13 13 12 13 13 12 10 9 8 8 9 9 9 8 7 8 8 8 7 6 5 4 3 4 4 4 3 4 3 5 6 5 4
12 12 9 9 10 10 8 8 11 13 12 10 12 14 15 14 13 11 10 9 8 9 9 8 8 8 8 8 8 8 6 5 4 3 3 4 4 3 5 3 4 5 5 5
13 12 11 11 11 10 8 9 10 13 14 11 11 13 16 12 13 12 11 10 10 10 9 9 9 9 9 9 9 9 7 7 5 5 5 5 4 4 3 0 1 0 2 3
14 12 11 11 11 11 10 11 9 12 13 13 12 11 14 13 11 14 14 13 12 10 10 10 10 10 10 9 9 9 8 8 7 6 6 6 6 5 5 5 4 3 5 9
16 15 13 11 10 8 8 8 7 9 11 10 11 12 15 16 17 17 15 13 12 11 11 12 12 11 10 10 10 9 8 7 7 6 7 7 7 6 6 6 6 5 4 5
13 11 10 8 8 5 3 4 5 7 9 11 11 14 17 19 18 16 15 15 14 14 13 14 13 13 12 11 11 9 8 11 10 7 7 7 7 7 8 8 8 7 7 7
11 10 9 8 7 4 2 3 2 3 6 10 14 16 16 16 15 15 16 17 16 16 15 15 15 14 13 13 12 9 8 8 12 8 7 7 7 8 8 8 8 8 9 10
5 7 6 6 6 5 3 2 3 3 2 3 8 11 14 18 19 20 19 17 14 13 15 16 16 15 15 14 13 10 8 8 7 7 7 7 6 6 7 8 9 9 7 8
17 15 13 10 6 3 2 4 4 3 4 4 2 5 11 16 19 19 18 17 18 18 17 17 20 18 16 17 15 10 10 9 8 7 8 9 7 6 6 7 8 8 8 7
18 16 15 15 16 14 11 7 4 4 4 3 2 0 5 10 12 15 18 20 20 18 17 18 18 17 17 17 17 11 11 10 9 8 8 7 7 7 7 8 8 8 8 8
13 12 11 11 12 14 16 14 10 8 6 5 4 5 5 7 11 14 16 18 19 17 18 21 18 16 15 15 17 12 12 11 10 9 9 9 8 8 8 9 9 8 9 9
9 11 11 8 6 9 11 13 13 13 11 9 9 8 8 8 9 12 17 19 18 20 19 17 16 18 19 19 14 13 13 12 11 10 10 9 9 9 10 10 9 9 9 9
9 10 12 12 12 12 13 13 14 14 13 12 11 11 11 10 8 9 12 15 14 20 20 17 20 23 24 19 14 14 14 14 12 11 11 10 10 10 10 11 10 10 9 9
12 12 12 11 11 12 13 13 13 13 13 12 12 12 11 9 9 9 11 15 20 22 19 20 24 25 24 17 14 15 15 15 14 13 12 11 10 9 9 10 10 10 10 11
12 12 11 10 10 10 11 12 12 12 11 10 10 10 9 7 7 7 8 10 16 20 18 21 25 26 22 15 15 15 15 15 14 13 12 10 10 10 9 9 10 10 10 9
11 9 9 10 11 11 11 11 11 10 10 9 8 7 7 6 6 5 6 8 11 17 18 15 18 21 17 15 15 15 15 15 15 14 13 12 12 11 9 10 11 10 9 8
10 8 8 9 11 11 11 11 11 10 9 9 9 8 7 7 6 5 5 5 6 10 13 14 14 15 15 14 12 13 13 12 12 12 12 11 10 10 10 11 10 9 8 8
Wind_Direction
218 241 260 281 278 208 192 196 198 232 240 257 258 260 254 233 220 210 212 197 168 153 151 139 117 92 68 36 22 33 73 120 154 171 159 135 108 88 79 83 85 77 66 47
261 265 287 289 280 236 207 203 213 235 256 239 237 242 238 227 227 229 215 188 162 150 145 139 132 126 91 358 338 54 107 113 104 115 113 101 100 97 90 89 90 82 72 58
242 272 317 280 243 209 199 193 191 224 244 220 218 222 213 214 221 225 211 182 169 156 153 163 171 167 201 256 305 105 119 111 96 95 91 90 99 94 94 100 101 90 78 63
211 324 247 246 247 204 189 198 193 204 207 196 209 213 211 206 207 216 203 177 171 165 171 187 197 207 224 227 194 148 136 123 109 105 102 96 94 94 96 105 107 100 83 67
166 218 263 275 263 190 168 220 217 185 197 207 205 169 253 222 198 195 185 173 172 172 175 184 200 213 207 203 180 162 154 138 128 126 124 118 109 103 100 105 102 97 88 74
172 210 245 257 244 145 109 262 227 163 184 197 160 184 252 227 189 177 166 159 160 158 152 167 194 186 180 191 169 165 157 142 131 133 141 144 140 121 103 110 111 103 85 70
207 231 260 259 195 123 154 230 213 185 192 196 196 214 218 177 163 161 162 166 163 155 156 176 179 158 151 145 154 156 138 121 115 131 156 161 151 132 123 115 108 98 87 63
205 224 258 242 200 191 216 206 200 200 204 205 204 191 169 162 163 167 174 179 171 164 172 177 163 150 148 153 152 131 122 116 109 106 150 156 151 142 132 125 120 111 97 72
203 219 245 245 232 228 188 190 205 204 203 180 171 176 176 176 175 179 184 187 177 170 176 181 172 158 160 167 145 125 117 114 103 80 72 129 149 147 137 132 131 129 117 102
261 263 279 281 266 239 209 207 205 195 188 175 179 184 182 180 181 183 186 183 174 166 174 187 187 177 174 166 146 132 133 130 117 104 87 86 108 128 135 140 140 140 136 129
271 272 280 278 274 267 258 242 214 197 190 186 181 180 179 180 182 183 180 178 171 171 180 189 187 181 175 164 150 147 150 150 142 129 117 98 89 97 127 146 165 158 166 163
258 251 241 252 256 263 261 244 219 203 201 192 179 177 176 181 182 178 176 171 170 174 180 184 180 180 179 170 160 156 161 169 167 154 137 129 120 88 59 95 116 137 154 161
238 243 237 244 253 252 254 249 228 207 198 189 180 174 174 176 180 177 175 171 174 178 179 178 177 182 184 175 166 167 175 181 182 178 169 165 161 159 166 14 22 61 198 214
240 244 253 250 246 251 257 262 244 214 204 187 177 172 174 172 174 177 181 183 179 175 175 176 178 188 190 179 175 181 184 191 188 189 187 185 187 187 183 185 208 252 254 244
245 239 237 242 245 256 262 269 256 220 205 192 179 173 175 178 182 186 186 182 177 176 179 179 183 193 192 185 186 190 191 195 196 195 196 197 198 198 199 201 203 209 221 243
239 238 233 223 221 230 262 290 255 222 206 201 192 187 186 186 186 185 184 181 179 184 185 184 189 195 191 189 191 194 199 206 197 196 201 206 208 208 211 213 212 207 210 218
239 235 218 207 210 206 221 258 244 218 212 214 210 200 190 186 185 187 189 189 188 188 186 187 194 196 194 194 194 198 199 208 207 198 199 202 204 207 209 209 207 209 215 212
258 242 214 194 187 185 184 153 105 85 72 252 231 208 192 188 191 195 195 191 189 188 191 192 193 195 197 197 198 201 201 202 201 204 207 205 204 201 196 197 200 203 212 210
30 37 33 24 22 41 90 91 81 71 54 50 50 215 210 205 201 198 193 190 192 197 201 197 193 192 197 201 198 199 199 200 206 213 213 212 208 203 197 193 195 198 196 194
7 12 23 21 13 2 352 355 12 15 11 26 39 315 233 229 222 209 198 199 203 204 199 196 195 197 200 204 201 201 201 200 201 209 209 205 203 205 201 198 195 194 195 198
349 346 353 3 359 343 331 327 325 323 317 312 296 272 254 242 231 219 211 213 215 206 198 194 197 201 203 204 203 204 204 204 202 203 207 210 210 210 209 209 205 199 198 201
324 316 310 303 291 285 286 291 292 291 286 280 274 269 265 261 248 233 223 221 218 204 202 203 203 202 202 203 205 205 207 208 208 206 205 207 209 213 216 216 215 211 205 201
268 269 270 264 256 254 256 259 262 265 265 263 261 260 258 254 249 244 242 232 222 205 202 205 202 199 198 203 206 206 207 209 211 212 211 210 209 210 213 216 216 213 207 204
280 277 273 270 267 269 269 266 264 265 264 261 257 254 254 256 258 253 248 234 218 208 205 205 199 197 197 205 206 207 210 212 214 215 214 214 213 211 210 210 210 208 205 199
286 286 284 284 283 280 276 274 272 269 266 263 258 253 249 242 245 261 257 242 218 203 206 203 195 197 201 205 205 208 211 214 214 213 212 211 211 209 207 206 204 198 192 188
285 284 284 286 289 288 285 281 276 269 263 261 259 252 247 244 246 262 264 247 225 209 205 204 203 204 206 202 202 206 210 212 212 213 212 211 211 207 202 199 193 187 181 177
292 292 297 300 298 293 289 285 278 270 259 253 256 255 246 241 242 247 255 242 224 214 211 207 203 200 198 197 200 206 208 207 204 204 207 207 204 200 195 187 180 173 167 163
Height
1511 1506 1503 1503 1502 1505 1512 1515 1521 1514 1508 1500 1496 1494 1491 1489 1488 1488 1488 1488 1488 1490 1492 1493 1494 1494 1494 1495 1495 1496 1496 1497 1498 1498 1498 1498 1498 1498 1498 1497 1496 1494 1493 1491
1505 1500 1499 1499 1495 1495 1497 1498 1501 1500 1499 1491 1491 1490 1489 1488 1488 1488 1488 1488 1489 1490 1491 1492 1493 1493 1493 1493 1494 1494 1495 1495 1496 1497 1497 1498 1498 1498 1498 1497 1496 1495 1494 1493
1512 1501 1502 1504 1490 1488 1489 1487 1491 1497 1493 1488 1489 1488 1487 1487 1487 1487 1487 1487 1488 1489 1490 1491 1491 1491 1491 1492 1493 1493 1493 1494 1495 1496 1496 1497 1498 1498 1498 1498 1497 1496 1495 1495
1510 1507 1511 1498 1478 1477 1480 1481 1482 1483 1484 1484 1484 1484 1484 1485 1485 1485 1486 1486 1487 1488 1489 1489 1490 1489 1489 1490 1491 1492 1493 1493 1494 1494 1495 1496 1497 1497 1497 1497 1497 1497 1496 1496
1511 1512 1502 1486 1475 1475 1480 1482 1478 1479 1480 1481 1481 1483 1483 1482 1482 1483 1483 1485 1486 1486 1487 1487 1487 1487 1488 1489 1489 1490 1491 1492 1492 1493 1494 1494 1495 1495 1496 1497 1497 1497 1497 1497
1506 1509 1508 1489 1473 1470 1476 1485 1477 1476 1477 1478 1480 1485 1481 1478 1479 1480 1481 1483 1484 1485 1485 1486 1486 1486 1486 1487 1487 1488 1490 1490 1491 1492 1492 1493 1493 1494 1495 1496 1497 1497 1498 1498
1500 1502 1493 1476 1471 1471 1486 1484 1473 1472 1473 1474 1475 1475 1474 1475 1476 1478 1480 1481 1482 1483 1483 1484 1484 1484 1484 1485 1486 1487 1488 1489 1490 1491 1491 1492 1493 1493 1495 1496 1497 1497 1498 1499
1496 1499 1494 1471 1469 1473 1471 1465 1466 1467 1468 1468 1468 1469 1470 1472 1474 1476 1478 1479 1480 1480 1481 1481 1482 1482 1482 1483 1484 1485 1486 1487 1488 1489 1490 1491 1492 1493 1494 1495 1496 1497 1498 1498
1486 1484 1471 1467 1465 1462 1461 1461 1461 1462 1463 1463 1464 1465 1467 1469 1471 1473 1475 1476 1477 1478 1479 1479 1479 1480 1480 1481 1482 1483 1484 1485 1487 1488 1489 1490 1491 1492 1493 1494 1495 1496 1497 1498
1476 1470 1466 1464 1462 1460 1458 1456 1455 1456 1457 1458 1459 1460 1462 1465 1467 1470 1471 1473 1474 1475 1476 1477 1477 1478 1479 1480 1480 1481 1482 1483 1485 1486 1487 1488 1489 1491 1492 1494 1495 1496 1497 1498
1472 1466 1462 1458 1457 1456 1454 1453 1451 1451 1452 1453 1454 1455 1457 1460 1462 1465 1467 1469 1470 1471 1473 1474 1475 1476 1477 1478 1479 1479 1480 1482 1483 1485 1486 1487 1489 1490 1492 1494 1495 1497 1497 1498
1464 1458 1457 1453 1451 1450 1449 1449 1448 1447 1447 1448 1449 1450 1452 1454 1457 1460 1462 1464 1466 1467 1469 1471 1472 1474 1475 1476 1477 1478 1479 1481 1483 1484 1485 1487 1488 1490 1492 1494 1495 1496 1497 1498
1449 1448 1447 1446 1445 1444 1443 1443 1442 1441 1441 1442 1443 1445 1447 1449 1452 1455 1457 1460 1461 1463 1465 1467 1469 1471 1473 1475 1476 1478 1479 1481 1482 1484 1485 1486 1488 1490 1492 1494 1495 1496 1497 1498
1441 1440 1439 1438 1437 1437 1437 1436 1436 1435 1435 1436 1438 1440 1442 1445 1447 1450 1452 1454 1457 1459 1461 1463 1466 1468 1470 1473 1475 1477 1479 1480 1482 1483 1485 1487 1488 1490 1492 1493 1494 1495 1496 1497
1431 1431 1430 1429 1430 1430 1430 1430 1429 1429 1429 1431 1432 1435 1437 1439 1441 1444 1447 1450 1452 1454 1457 1459 1462 1465 1467 1470 1473 1475 1477 1479 1481 1483 1484 1486 1487 1489 1490 1492 1493 1494 1495 1496
1422 1423 1423 1423 1424 1424 1424 1424 1424 1424 1425 1426 1428 1429 1431 1433 1435 1438 1441 1444 1446 1448 1452 1455 1458 1461 1464 1467 1470 1472 1474 1477 1479 1480 1482 1483 1485 1486 1487 1488 1489 1491 1492 1493
1416 1415 1416 1417 1418 1419 1419 1420 1420 1421 1421 1422 1423 1424 1425 1427 1430 1432 1435 1437 1440 1442 1446 1450 1453 1457 1460 1462 1465 1468 1471 1473 1475 1477 1478 1480 1481 1482 1483 1484 1485 1486 1487 1488
1410 1410 1411 1413 1414 1414 1415 1416 1417 1417 1417 1417 1417 1418 1419 1420 1422 1425 1427 1431 1434 1437 1440 1444 1447 1451 1454 1457 1460 1463 1466 1468 1470 1472 1473 1475 1476 1478 1479 1480 1481 1482 1483 1484
1414 1412 1412 1414 1414 1414 1414 1413 1413 1413 1413 1413 1413 1414 1414 1414 1415 1417 1420 1424 1426 1429 1432 1436 1440 1444 1448 1451 1454 1457 1460 1462 1465 1466 1467 1469 1471 1473 1474 1475 1476 1478 1478 1479
1422 1418 1414 1412 1412 1414 1414 1412 1411 1410 1410 1410 1410 1410 1410 1411 1412 1412 1413 1415 1416 1418 1423 1428 1432 1437 1440 1444 1448 1451 1453 1456 1458 1460 1461 1463 1465 1467 1469 1470 1471 1472 1473 1473
1424 1421 1417 1414 1411 1411 1410 1410 1408 1406 1406 1406 1406 1405 1405 1405 1405 1405 1406 1406 1408 1411 1415 1420 1424 1428 1432 1436 1440 1443 1446 1449 1451 1453 1455 1457 1459 1461 1463 1464 1465 1466 1467 1467
1422 1420 1417 1414 1410 1408 1406 1405 1404 1402 1400 1399 1398 1397 1397 1396 1395 1395 1395 1396 1398 1401 1405 1410 1414 1419 1423 1427 1431 1434 1438 1441 1444 1446 1448 1450 1452 1454 1456 1457 1459 1460 1460 1461
1417 1413 1410 1408 1405 1402 1400 1398 1396 1394 1392 1390 1389 1388 1386 1385 1384 1384 1383 1384 1387 1391 1394 1398 1403 1408 1413 1418 1422 1425 1429 1432 1435 1438 1440 1442 1444 1446 1448 1450 1451 1453 1454 1454
1410 1406 1403 1399 1397 1394 1392 1389 1387 1384 1381 1379 1378 1377 1375 1374 1372 1372 1371 1372 1375 1378 1382 1387 1393 1398 1404 1408 1412 1416 1419 1423 1425 1428 1431 1434 1436 1439 1441 1442 1444 1445 1446 1447
1401 1397 1394 1390 1387 1384 1381 1378 1375 1373 1371 1369 1367 1366 1365 1364 1363 1361 1361 1361 1362 1365 1369 1375 1381 1388 1393 1398 1402 1406 1410 1413 1416 1419 1422 1425 1428 1430 1433 1434 1436 1438 1439 1440
1391 1388 1384 1381 1378 1374 1370 1367 1363 1361 1359 1357 1356 1355 1354 1354 1353 1352 1351 1351 1352 1355 1358 1364 1370 1377 1383 1388 1392 1396 1400 1404 1407 1411 1414 1417 1419 1422 1424 1426 1429 1430 1432 1434
1382 1379 1375 1371 1367 1363 1359 1355 1352 1350 1349 1347 1346 1345 1345 1344 1343 1342 1342 1342 1343 1345 1349 1354 1360 1366 1372 1378 1383 1388 1391 1395 1398 1402 1405 1409 1412 1414 1417 1419 1421 1423 1425 1427